Content
SEND FEEDBACK

Daily
Averages
Monthly
Summary
United Kingdom

LONDON, ENGLAND


Home > Europe > United Kingdom > England
Elevation: 203 feet     Latitude: 51 09N     Longitude: 000 11W

WEATHER
 
SELECT A DAY
Number of Records: 297,333;   Date Range: 7/1/96 - 10/24/14
 
SHARE

PRINT THIS DATA

[ ← Previous Day ]
WEATHER ALMANAC - MAY 9, 2013
[ Next Day → ]
[ °C ]   °F
Weather ElementAverageHighLow
Temperature50.7 °F57.2 °F (1:50 pm)44.6 °F (2:50 am)
Dewpoint42.7 °F48.2 °F (10:50 pm)39.2 °F (9:50 am)
Humidity75.4 %94 % (10:50 pm)54 % (10:50 am)
Barometer29.81 in29.86 in (12:50 am)29.74 in (5:20 pm)
Wind Speed14.8 mph24.2 mph (1:20 pm)
Wind Gust40.3 mph (5:20 pm)
Weather ElementAverage
Visibility5.9 mi
Wind DirectionSSW (213.8 °)

Weather ElementTotal
Precipitation---
Heating Degree Days14.1 (Base 65)
Growing Degree Days0.9 (Base 50)
Averaged from 47 records on May 9, 2013
WEATHER CONDITIONS BREAKOUT
WIND DIRECTION BREAKOUT
WEATHER BY HOUR - MAY 9, 2013
[ °C ]   °F
Local TimeTemperatureDewpointHumidityBarometerVisibilityWind DirectionWind SpeedGust SpeedPrecipitationEventsConditions
12:50 AM48.2 °F46.4 °F93 %29.86 in5.0 miSW (220°)6.9 mphPartly Cloudy
1:20 AM48.2 °F44.6 °F87 %29.86 inSW (220°)5.8 mphClear
1:50 AM46.4 °F44.6 °F93 %29.86 in6.2 miSW (220°)5.8 mphScattered Clouds
2:20 AM46.4 °F42.8 °F87 %29.86 inSW (220°)5.8 mphClear
2:50 AM44.6 °F42.8 °F93 %29.86 inSSW (210°)4.6 mphClear
3:20 AM44.6 °F42.8 °F93 %29.86 inSSW (200°)5.8 mphClear
3:50 AM44.6 °F42.8 °F93 %29.86 inSSW (210°)5.8 mphClear
4:20 AM44.6 °F42.8 °F93 %29.86 inSSW (200°)5.8 mphClear
4:50 AM44.6 °F42.8 °F93 %29.86 inSSW (200°)5.8 mphClear
5:20 AM44.6 °F41.0 °F87 %29.86 inSSW (210°)5.8 mphClear
5:50 AM44.6 °F41.0 °F87 %29.86 inSSW (210°)5.8 mphClear
6:20 AM46.4 °F42.8 °F87 %29.86 in6.2 miSSW (200°)5.8 mphScattered Clouds
6:50 AM46.4 °F42.8 °F87 %29.86 in6.2 miSSW (210°)6.9 mphScattered Clouds
7:20 AM48.2 °F42.8 °F82 %29.86 in6.2 miSSW (200°)8.1 mphScattered Clouds
7:50 AM50.0 °F42.8 °F76 %29.86 in6.2 miSSW (210°)11.5 mphMostly Cloudy
8:20 AM51.8 °F42.8 °F71 %29.86 in6.2 miSSW (210°)13.8 mphScattered Clouds
8:50 AM51.8 °F42.8 °F71 %29.86 in6.2 miSSW (200°)16.1 mphScattered Clouds
9:20 AM51.8 °F42.8 °F71 %29.86 in6.2 miSSW (210°)15.0 mphMostly Cloudy
9:50 AM51.8 °F39.2 °F62 %29.86 in6.2 miSW (220°)19.6 mph31.1 mphScattered Clouds
10:20 AM53.6 °F39.2 °F58 %29.83 in6.2 miSSW (210°)16.1 mphScattered Clouds
10:50 AM55.4 °F39.2 °F54 %29.83 in6.2 miSSW (210°)18.4 mph29.9 mphScattered Clouds
11:20 AM53.6 °F39.2 °F58 %29.83 in6.2 miSW (220°)18.4 mph29.9 mphScattered Clouds
11:50 AM55.4 °F41.0 °F58 %29.83 in6.2 miSSW (210°)17.3 mph35.7 mphMostly Cloudy
12:20 PM53.6 °F41.0 °F62 %29.83 in6.2 miSSW (210°)18.4 mphMostly Cloudy
12:50 PM53.6 °F41.0 °F62 %29.83 in6.2 miSSW (210°)21.9 mphRainLight Rain Showers
1:20 PM55.4 °F41.0 °F58 %29.80 in6.2 miSSW (210°)24.2 mph35.7 mphMostly Cloudy
1:50 PM57.2 °F41.0 °F55 %29.80 in6.2 miSSW (210°)19.6 mph35.7 mphScattered Clouds
2:20 PM55.4 °F41.0 °F58 %29.80 in6.2 miSW (220°)19.6 mph34.5 mphScattered Clouds
2:50 PM57.2 °F41.0 °F55 %29.80 in6.2 miSSW (210°)19.6 mphScattered Clouds
3:20 PM55.4 °F39.2 °F54 %29.80 in6.2 miSW (220°)24.2 mph36.8 mphScattered Clouds
3:50 PM55.4 °F39.2 °F54 %29.77 in6.2 miSW (220°)19.6 mph31.1 mphScattered Clouds
4:20 PM55.4 °F41.0 °F58 %29.77 in6.2 miSW (220°)20.7 mph33.4 mphScattered Clouds
4:50 PM55.4 °F41.0 °F58 %29.77 in6.2 miSW (220°)19.6 mph35.7 mphScattered Clouds
5:20 PM53.6 °F41.0 °F62 %29.74 in6.2 miSW (220°)24.2 mph40.3 mphScattered Clouds
5:50 PM53.6 °F41.0 °F62 %29.74 in6.2 miSW (220°)20.7 mph34.5 mphScattered Clouds
6:20 PM53.6 °F41.0 °F62 %29.74 in6.2 miSW (220°)20.7 mph33.4 mphMostly Cloudy
6:50 PM51.8 °F42.8 °F71 %29.74 in6.2 miSSW (210°)19.6 mphRainLight Rain Showers
7:20 PM50.0 °F44.6 °F82 %29.74 in6.2 miSSW (210°)18.4 mph34.5 mphRainLight Rain Showers
7:50 PM50.0 °F44.6 °F82 %29.74 in5.6 miSW (220°)18.4 mph33.4 mphRainLight Rain Showers
8:20 PM50.0 °F44.6 °F82 %29.74 in5.6 miSW (220°)21.9 mphRainLight Rain
8:50 PM50.0 °F46.4 °F87 %29.74 in4.3 miSSW (210°)18.4 mph33.4 mphRainLight Rain
9:20 PM50.0 °F46.4 °F87 %29.74 in3.7 miSW (220°)17.3 mphRainLight Rain
9:50 PM48.2 °F46.4 °F93 %29.74 inSW (220°)16.1 mphRainLight Rain
10:20 PM48.2 °F46.4 °F93 %29.74 inSW (220°)15.0 mph28.8 mphDrizzle
10:50 PM50.0 °F48.2 °F94 %29.74 in3.1 miSW (220°)16.1 mphRainRain
11:20 PM50.0 °F48.2 °F94 %29.74 in5.0 miSW (230°)13.8 mphRainLight Rain
11:50 PM50.0 °F46.4 °F87 %29.74 in5.6 miSW (230°)16.1 mphMostly Cloudy
Hourly data recorded from EGKK, located miles away from London, England







STORIES FROM OUR PARTNERS